Hourly Data Report for April 21, 2021

ALGONQUIN PARK EAST GATE
ONTARIO
Current Station Operator: ECCC - MSC

45°32'00.000" N
78°16'00.000" W
397.00 m
6080192
71581
TNK

Download Data

Hourly Data (April 2021)
Hourly Data Report for April 21, 2021
TIME
LST
Temp Definition
°C
Dew Point Definition
°C
Rel Hum Definition
%
Precip. Amount Definition
mm

Wind Dir Definition
10's deg

Wind Spd Definition
km/h
Visibility Definition
km
Stn Press Definition
kPa
Hmdx Definition


Wind Chill Definition


Weather Definition


00:00 -2.6 -8.7 63 0.0 1 7   96.58   -5 LegendNANA
01:00 -3.4 -9.7 62 0.0 2 6   96.59   -6 LegendNANA
02:00 -4.0 -10.3 62 0.0 1 4   96.57   -6 LegendNANA
03:00 -4.2 -10.4 62 0.0 35 5   96.50   -6 LegendNANA
04:00 -4.9 -10.7 63 0.0 36 4   96.52   -7 LegendNANA
05:00 -5.4 -11.2 64 0.0 3 5   96.51   -8 LegendNANA
06:00 -6.1 -11.8 64 0.0 3 3   96.55   -8 LegendNANA
07:00 -5.9 -11.6 64 0.0 36 5   96.53   -8 LegendNANA
08:00 -5.9 -12.7 59 0.0 36 4   96.49   -8 LegendNANA
09:00 -5.6 -12.5 58 0.0 6 6   96.46   -8 LegendNANA
10:00 -4.0 -12.6 51 0.0 3 5   96.44   -6 LegendNANA
11:00 -2.3 -13.0 43 0.0 31 6   96.36   -5 LegendNANA
12:00 -1.2 -14.1 37 0.0 36 10   96.29   -5 LegendNANA
13:00 0.0 -12.4 39 0.0 32 7   96.25   -2 LegendNANA
14:00 -0.9 -10.4 49 0.0 34 7   96.28   -3 LegendNANA
15:00 -1.0 -8.2 58 0.0 1 7   96.26   -4 LegendNANA
16:00 -1.3 -7.2 64 0.0 36 8   96.27   -4 LegendNANA
17:00 -2.0 -5.9 75 0.0 34 6   96.27   -4 LegendNANA
18:00 -2.8 -6.7 74 0.0 32 4   96.28   -4 LegendNANA
19:00 -3.2 -6.8 76 0.1 33 6   96.29   -6 LegendNANA
20:00 -3.6 -7.9 72 0.0 31 5   96.31   -6 LegendNANA
21:00 -3.5 -7.2 76 0.0 35 3   96.31   -5 LegendNANA
22:00 -3.7 -7.3 76 0.0 27 2   96.28   -5 LegendNANA
23:00 -3.9 -7.3 78 0.0 28 2   96.24   -5 LegendNANA

Notes on Data Quality.

Legend

  • E = Estimated
  • M = Missing
  • NA = Not Available*
  • [empty] = Indicates an unobserved value
Date modified: